Flag for Christmas Island Weather past 2 weeks in The Settlement, Christmas Island

79 °F

Partly sunny.

Feels Like: 82 °F
Forecast: 78 / 84 °F
Wind: 15 mph from Southeast

Location: Christmas Island Aerodrome

Current Time: Nov 30, 2015 at 8:26:03 AM

Latest Report: Nov 30, 2015 at 8:00 AM

Visibility: N/A

Pressure: 29.98 "Hg

Humidity: 89%

Dew point: 75 °F

Location of The SettlementLocation

Historic Weather in The Settlement — Graph


The Settlement temperature yesterday

Maximum temperature yesterday: 81 °F (at 8:30 AM)
Minimum temperature yesterday: 73 °F (at 1:00 PM)
Average temperature yesterday: 78 °F

Past Weeks' High & Low Weather Summary

High84 °F (Nov 17, 1:00 PM)100% (Nov 29, 3:00 PM)30.01 "Hg (Nov 29, 3:00 PM)
Low73 °F (Nov 29, 1:00 PM)66% (Nov 17, 12:01 PM)29.80 "Hg (Nov 25, 3:00 PM)
Average79 °F83%29.90 "Hg
* Reported Nov 15 7:00 AM — Nov 30 7:00 AM, The Settlement, Weather by CustomWeather, © 2015

Note: Actual official high and low records may vary slightly from our data, if they occured in-between our weather recording intervals... More about our weather records


The Settlement weather history for previous 24 hours

Time TempWeatherWind HumidityBarometerVisibility
7:00 AM
Mon, Nov 30
79 °FPartly sunny.14 mph84%29.98 "HgN/A
6:30 AM77 °FPartly sunny.16 mph89%29.95 "HgN/A
6:00 AM77 °FMostly cloudy.14 mph94%29.95 "HgN/A
5:30 AM77 °FMostly cloudy.13 mph94%29.95 "HgN/A
5:00 AM77 °FMostly cloudy.12 mph94%29.92 "HgN/A
4:00 AM77 °FMostly cloudy.13 mph94%29.92 "HgN/A
3:30 AM77 °FMostly cloudy.14 mph94%29.92 "Hg6 mi
3:00 AM77 °FMostly cloudy.13 mph94%29.92 "Hg6 mi
2:30 AM77 °FMostly cloudy.15 mph94%29.92 "Hg5 mi
2:00 AM77 °FLow clouds.14 mph94%29.92 "Hg6 mi
1:30 AM77 °FMostly cloudy.15 mph94%29.95 "Hg6 mi
1:00 AM77 °FMostly cloudy.14 mph94%29.95 "Hg5 mi
12:30 AM79 °FMostly cloudy.15 mph94%29.95 "Hg5 mi
12:00 AM77 °FLow clouds.15 mph94%29.98 "Hg5 mi
11:30 PM
Sun, Nov 29
79 °FLow clouds.14 mph94%29.98 "Hg4 mi
11:00 PM79 °FMostly cloudy.15 mph94%29.98 "Hg4 mi
10:00 PM79 °FLow clouds.15 mph94%29.98 "Hg4 mi
9:30 PM79 °FLight rain. Low clouds.14 mph94%29.98 "Hg2 mi
9:00 PM79 °FLight rain. Mostly cloudy.12 mph94%29.98 "Hg4 mi
8:30 PM79 °FLight rain. Low clouds.10 mph94%29.98 "Hg3 mi
8:00 PM77 °FRain. Low clouds.9 mph100%29.98 "Hg2 mi
7:30 PM77 °FLight rain. Passing clouds.8 mph94%29.98 "HgN/A
7:00 PM75 °FMostly cloudy.6 mph94%29.95 "HgN/A
6:00 PM75 °FSunny.7 mph94%29.95 "HgN/A
5:30 PM75 °FScattered clouds.7 mph94%29.95 "HgN/A
5:00 PM75 °FScattered clouds.5 mph89%29.95 "HgN/A
4:30 PM75 °FSunny.3 mph89%29.95 "HgN/A
4:00 PM73 °FLight rain. Scattered clouds.5 mph94%29.95 "HgN/A
3:30 PM73 °FLight rain. Mostly cloudy.5 mph100%29.95 "HgN/A
3:00 PM73 °FLight rain. Cloudy.5 mph100%29.95 "Hg4 mi
2:00 PM73 °FRain. More clouds than sun.7 mph94%29.98 "Hg4 mi
1:00 PM73 °FLots of rain. Cloudy.6 mph94%30.01 "Hg2 mi
12:00 PM79 °FMostly cloudy.12 mph94%30.01 "Hg4 mi
11:00 AM79 °FRain showers. Mostly cloudy.8 mph94%30.01 "Hg4 mi
10:00 AM81 °FMostly cloudy.14 mph89%30.01 "HgN/A
9:00 AM81 °FLow clouds.13 mph89%30.01 "HgN/A
8:30 AM81 °FLow clouds.15 mph89%30.01 "HgN/A
8:00 AM79 °FMostly cloudy.12 mph94%30.01 "HgN/A
Weather by CustomWeather, © 2015

See weather overviewHow to use our weather pages